This is the latest recevied weather packets stored in our database for station/object EA3CTN-13. If no packets are shown the sender has not sent any weather packets the latest 10 day(s).
| Time | Temp. | Humidity | Pressure | Rain* | Wind** | Luminosity | Snow |
|---|---|---|---|---|---|---|---|
| 1787608452 | 27.78° C | 42% | 1011.1 hPa | - | - | - | - |
| 1787607972 | 27.78° C | 42% | 1011.1 hPa | - | - | - | - |
| 1787607492 | 27.78° C | 41% | 1011 hPa | - | - | - | - |
| 1787607012 | 28.33° C | 42% | 1010.8 hPa | - | - | - | - |
| 1787606532 | 28.33° C | 41% | 1010.9 hPa | - | - | - | - |
| 1787606052 | 28.33° C | 41% | 1010.7 hPa | - | - | - | - |
| 1787605572 | 28.33° C | 41% | 1010.8 hPa | - | - | - | - |
| 1787605092 | 28.33° C | 40% | 1011 hPa | - | - | - | - |
| 1787604612 | 28.33° C | 42% | 1011 hPa | - | - | - | - |
| 1787604132 | 28.33° C | 42% | 1011 hPa | - | - | - | - |
| 1787603652 | 27.78° C | 42% | 1011 hPa | - | - | - | - |
| 1787603172 | 27.78° C | 40% | 1011 hPa | - | - | - | - |
| 1787602692 | 27.78° C | 43% | 1011 hPa | - | - | - | - |
| 1787602212 | 27.78° C | 43% | 1010.9 hPa | - | - | - | - |
| 1787601732 | 27.78° C | 43% | 1010.8 hPa | - | - | - | - |
| 1787601252 | 27.78° C | 41% | 1010.8 hPa | - | - | - | - |
| 1787600772 | 27.78° C | 41% | 1010.7 hPa | - | - | - | - |
| 1787600292 | 27.78° C | 40% | 1010.5 hPa | - | - | - | - |
| 1787599812 | 27.78° C | 42% | 1010.3 hPa | - | - | - | - |
| 1787599332 | 27.78° C | 42% | 1010.2 hPa | - | - | - | - |
| 1787598852 | 27.78° C | 44% | 1010.3 hPa | - | - | - | - |
| 1787598372 | 28.33° C | 45% | 1010 hPa | - | - | - | - |
| 1787597892 | 28.33° C | 47% | 1010.1 hPa | - | - | - | - |
| 1787597412 | 28.33° C | 46% | 1010.2 hPa | - | - | - | - |
| 1787596932 | 28.33° C | 47% | 1010.1 hPa | - | - | - | - |
* Rain since midnight (hover to see other rain measurements)
** Current wind speed in m/s (hover to see current wind gust speed)